Regional Weather Roundup
Issued by NWS Cleveland, OH

Home | Current Version | Previous Version | Graphics & Text | Print | Product List | Glossary On
Versions: 1 2 3 4 5 6 7 8 9 10 11 12 13 14 15 16 17 18 19 20 21 22 23 24 25 26 27 28 29 30 31 32 33 34 35 36 37 38 39 40 41 42 43 44 45 46 47 48 49 50
000
ASUS41 KCLE 070802
RWRCLE
OHIO REGIONAL WEATHER ROUNDUP
NATIONAL WEATHER SERVICE CLEVELAND, OH
400 AM EDT TUE JUL 07 2015

NOTE: "FAIR" INDICATES FEW OR NO CLOUDS BELOW 12,000 FEET WITH NO
SIGNIFICANT WEATHER AND/OR OBSTRUCTIONS TO VISIBILITY.

OHZ001>008-015>018-024>027-034-035-043-044-070900-
   NORTHWEST OHIO

CITY           SKY/WX    TMP DP  RH WIND       PRES   REMARKS
DEFIANCE       CLOUDY    75  69  81 S9        29.90S
FINDLAY        MOCLDY    70  66  87 S8        29.92F FOG
TOLEDO EXPRESS CLOUDY    72  66  81 S7        29.89F
TOLEDO EXEC    MOCLDY    73  65  75 S9        29.91F
LIMA           MOCLDY    71  67  87 S8        29.94S FOG
$$

OHZ009>014-019>023-028>033-038-089-070900-
   NORTHEAST OHIO

CITY           SKY/WX    TMP DP  RH WIND       PRES   REMARKS
CLE-HOPKINS    MOCLDY    71  61  70 S10       29.97F
CLE-LAKEFRONT  MOCLDY    74  61  63 S14       29.93F
CUY CO. ARPT   NOT AVBL
LORAIN-ELYRIA  MOCLDY    68  61  78 SW6       29.96F
ASHTABULA      CLEAR     67  66  97 S6        29.97F
AKRON-CANTON   CLEAR     68  62  81 SW8       30.00F
WOOSTER        PTCLDY    65  62  90 S5        29.99F
MANSFIELD      PTCLDY    67  62  84 S8        29.99S
YOUNGSTOWN     MOCLDY    68  66  93 S6        29.99S
$$

OHZ042-051>053-060>062-070>072-077>081-070900-
  SOUTHWEST OHIO

CITY           SKY/WX    TMP DP  RH WIND       PRES   REMARKS
CINC-COVINGTON MOCLDY    73  69  87 S8        30.00S
CINC-LUNKEN    MOCLDY    72  69  90 S5        29.99S
HAMILTON       PTCLDY    75  70  84 S3        29.99S
DAYTON         MOCLDY    74  69  85 S9        29.98S
WRIGHT-PAT AFB MOCLDY    72  69  90 SE6       29.97F
DAYTON GENERAL PTCLDY    71  68  90 S8        29.98S
WILMINGTON     CLEAR     70  66  87 S8        30.00S FOG
$$

OHZ036-037-039>041-045>050-054>059-063>069-073>076-082>088-070900-
  CENTRAL AND SOUTHEAST OHIO

CITY           SKY/WX    TMP DP  RH WIND       PRES   REMARKS
COLUMBUS       MOCLDY    70  65  84 S6        29.99S
OSU AIRPORT    PTCLDY    70  66  87 S8        29.99S
BOLTON FIELD   NOT AVBL
RICKENBACK AFB NOT AVBL
NEWARK         CLEAR     63  60  90 CALM      30.00S
MARION         MOCLDY    69  64  84 S8        29.97F HAZE
LANCASTER      PTCLDY    70  65  84 S6        30.00F
ZANESVILLE     NOT AVBL
NEW PHILLY     NOT AVBL
$$



USA.gov is the U.S. government's official web portal to all federal, state and local government web resources and services.